contact:dominique.lefevre@mio.osupytheas.fr, maurice.libes@osupytheas.fr, didier.mallarino@osupytheas.fr
Project:EMSO http://www.emso-fr.org/EMSO-France
Depth: 2436.0 m
Title:EMSO Ligure Ouest : Data MII capteur MICROCAT
DateTime_Computer,Latitude,Longitude,Temperature,Conductivity,Pressure,DateTime_Instrument
DateTime_Computer,Latitude,Longitude,degC,S m-1,dbar,DateTime_Instrument
2020-05-23T00:01:10Z,42.805,6.029,13.2967,4.59980,2470.087,2020-5-23T02:01:53Z
2020-05-23T00:04:13Z,42.805,6.029,13.3002,4.60004,2470.11,2020-5-23T02:04:56Z
2020-05-23T00:07:17Z,42.805,6.029,13.2971,4.59987,2470.063,2020-5-23T02:07:59Z
2020-05-23T00:10:20Z,42.805,6.029,13.2998,4.59983,2470.063,2020-5-23T02:11:02Z
2020-05-23T00:13:23Z,42.805,6.029,13.2971,4.59982,2470.087,2020-5-23T02:14:06Z
2020-05-23T00:16:26Z,42.805,6.029,13.2970,4.59973,2470.063,2020-5-23T02:17:09Z
2020-05-23T00:19:29Z,42.805,6.029,13.2983,4.59978,2470.087,2020-5-23T02:20:12Z
2020-05-23T00:22:33Z,42.805,6.029,13.2978,4.60009,2470.063,2020-5-23T02:23:15Z
2020-05-23T00:25:36Z,42.805,6.029,13.2970,4.59978,2470.11,2020-5-23T02:26:18Z
2020-05-23T00:28:39Z,42.805,6.029,13.2990,4.60009,2470.077,2020-5-23T02:29:22Z
2020-05-23T00:31:42Z,42.805,6.029,13.2983,4.60014,2470.077,2020-5-23T02:32:25Z
2020-05-23T00:34:46Z,42.805,6.029,13.3014,4.59990,2470.077,2020-5-23T02:35:28Z
2020-05-23T00:37:49Z,42.805,6.029,13.2984,4.59999,2470.077,2020-5-23T02:38:32Z
2020-05-23T00:40:52Z,42.805,6.029,13.2997,4.59999,2470.063,2020-5-23T02:41:35Z
2020-05-23T00:43:55Z,42.805,6.029,13.2974,4.59978,2470.1,2020-5-23T02:44:38Z
2020-05-23T00:46:59Z,42.805,6.029,13.3001,4.59987,2470.063,2020-5-23T02:47:41Z
2020-05-23T00:50:02Z,42.805,6.029,13.2975,4.59989,2470.063,2020-5-23T02:50:44Z
2020-05-23T00:53:05Z,42.805,6.029,13.2990,4.59988,2470.087,2020-5-23T02:53:48Z
2020-05-23T00:56:08Z,42.805,6.029,13.2988,4.60002,2470.077,2020-5-23T02:56:51Z
2020-05-23T00:59:12Z,42.805,6.029,13.2998,4.60033,2470.04,2020-5-23T02:59:54Z
2020-05-23T01:02:15Z,42.805,6.029,13.3003,4.60041,2470.077,2020-5-23T03:02:57Z
2020-05-23T01:05:18Z,42.805,6.029,13.2996,4.60040,2470.087,2020-5-23T03:06:01Z
2020-05-23T01:08:21Z,42.805,6.029,13.2983,4.60009,2470.063,2020-5-23T03:09:04Z
2020-05-23T01:11:25Z,42.805,6.029,13.3011,4.60003,2470.077,2020-5-23T03:12:07Z
2020-05-23T01:14:28Z,42.805,6.029,13.3007,4.60031,2470.04,2020-5-23T03:15:10Z
2020-05-23T01:17:31Z,42.805,6.029,13.3009,4.60045,2470.04,2020-5-23T03:18:14Z
2020-05-23T01:20:35Z,42.805,6.029,13.2986,4.60018,2470.017,2020-5-23T03:21:17Z
2020-05-23T01:23:38Z,42.805,6.029,13.2986,4.60021,2470.04,2020-5-23T03:24:20Z
2020-05-23T01:26:41Z,42.805,6.029,13.2973,4.60033,2470.04,2020-5-23T03:27:24Z
2020-05-23T01:29:44Z,42.805,6.029,13.2990,4.60052,2470.1,2020-5-23T03:30:27Z
2020-05-23T01:32:48Z,42.805,6.029,13.2993,4.60032,2470.077,2020-5-23T03:33:30Z
2020-05-23T01:35:51Z,42.805,6.029,13.2996,4.60016,2470.1,2020-5-23T03:36:33Z
2020-05-23T01:38:54Z,42.805,6.029,13.2987,4.60052,2470.077,2020-5-23T03:39:37Z
2020-05-23T01:41:57Z,42.805,6.029,13.2990,4.60022,2470.04,2020-5-23T03:42:40Z
2020-05-23T01:45:00Z,42.805,6.029,13.2985,4.60032,2470.04,2020-5-23T03:45:43Z
2020-05-23T01:48:04Z,42.805,6.029,13.2991,4.60044,2470.03,2020-5-23T03:48:46Z
2020-05-23T01:51:07Z,42.805,6.029,13.2988,4.60049,2470.017,2020-5-23T03:51:50Z
2020-05-23T01:54:10Z,42.805,6.029,13.2991,4.60046,2470.063,2020-5-23T03:54:53Z
2020-05-23T01:57:14Z,42.805,6.029,13.3015,4.60033,2470.017,2020-5-23T03:57:56Z
2020-05-23T02:00:17Z,42.805,6.029,13.2993,4.60057,2470.04,2020-5-23T04:00:59Z
2020-05-23T02:03:20Z,42.805,6.029,13.3005,4.60041,2470.04,2020-5-23T04:04:03Z
2020-05-23T02:06:23Z,42.805,6.029,13.2981,4.60026,2470.053,2020-5-23T04:07:06Z
2020-05-23T02:09:27Z,42.805,6.029,13.2990,4.60041,2470.053,2020-5-23T04:10:09Z
2020-05-23T02:12:30Z,42.805,6.029,13.2984,4.60039,2470.053,2020-5-23T04:13:12Z
2020-05-23T02:15:33Z,42.805,6.029,13.2982,4.60041,2470.077,2020-5-23T04:16:16Z
2020-05-23T02:18:36Z,42.805,6.029,13.2980,4.60031,2470.053,2020-5-23T04:19:19Z
2020-05-23T02:21:40Z,42.805,6.029,13.2981,4.60028,2470.017,2020-5-23T04:22:22Z
2020-05-23T02:24:43Z,42.805,6.029,13.3004,4.60041,2470.04,2020-5-23T04:25:25Z
2020-05-23T02:27:46Z,42.805,6.029,13.2977,4.60035,2470.04,2020-5-23T04:28:28Z
2020-05-23T02:30:49Z,42.805,6.029,13.2985,4.60036,2470.03,2020-5-23T04:31:32Z
2020-05-23T02:33:53Z,42.805,6.029,13.2981,4.60042,2470.017,2020-5-23T04:34:35Z
2020-05-23T02:36:56Z,42.805,6.029,13.2998,4.60060,2470.077,2020-5-23T04:37:38Z
2020-05-23T02:39:59Z,42.805,6.029,13.2987,4.60024,2470.017,2020-5-23T04:40:42Z
2020-05-23T02:43:02Z,42.805,6.029,13.3009,4.60031,2470.053,2020-5-23T04:43:45Z
2020-05-23T02:46:06Z,42.805,6.029,13.2986,4.60029,2470.077,2020-5-23T04:46:48Z
2020-05-23T02:49:09Z,42.805,6.029,13.3010,4.60037,2470.017,2020-5-23T04:49:51Z
2020-05-23T02:52:12Z,42.805,6.029,13.3012,4.60021,2470.04,2020-5-23T04:52:54Z
2020-05-23T02:55:15Z,42.805,6.029,13.3027,4.60039,2470.03,2020-5-23T04:55:58Z
2020-05-23T02:58:18Z,42.805,6.029,13.3012,4.60025,2470.03,2020-5-23T04:59:01Z
2020-05-23T03:01:22Z,42.805,6.029,13.3031,4.60064,2470.063,2020-5-23T05:02:04Z
2020-05-23T03:04:25Z,42.805,6.029,13.3039,4.60050,2470.077,2020-5-23T05:05:08Z
2020-05-23T03:07:28Z,42.805,6.029,13.3041,4.60031,2470.007,2020-5-23T05:08:11Z
2020-05-23T03:10:32Z,42.805,6.029,13.3029,4.60011,2470.04,2020-5-23T05:11:14Z
2020-05-23T03:13:35Z,42.805,6.029,13.2993,4.60056,2470.077,2020-5-23T05:14:17Z
2020-05-23T03:16:38Z,42.805,6.029,13.3058,4.60044,2470.03,2020-5-23T05:17:21Z
2020-05-23T03:19:41Z,42.805,6.029,13.3048,4.60023,2470.053,2020-5-23T05:20:24Z
2020-05-23T03:22:45Z,42.805,6.029,13.3036,4.60025,2470.017,2020-5-23T05:23:27Z
2020-05-23T03:25:48Z,42.805,6.029,13.3041,4.60012,2470.053,2020-5-23T05:26:30Z
2020-05-23T03:28:51Z,42.805,6.029,13.3024,4.60036,2470.053,2020-5-23T05:29:34Z
2020-05-23T03:31:54Z,42.805,6.029,13.3032,4.60014,2470.063,2020-5-23T05:32:37Z
2020-05-23T03:34:58Z,42.805,6.029,13.3033,4.60020,2470.04,2020-5-23T05:35:40Z
2020-05-23T03:38:01Z,42.805,6.029,13.3031,4.60033,2470.053,2020-5-23T05:38:43Z
2020-05-23T03:41:04Z,42.805,6.029,13.3023,4.60042,2470.053,2020-5-23T05:41:46Z
2020-05-23T03:44:07Z,42.805,6.029,13.3001,4.60021,2470.053,2020-5-23T05:44:50Z
2020-05-23T03:47:10Z,42.805,6.029,13.2999,4.60033,2470.1,2020-5-23T05:47:53Z
2020-05-23T03:50:14Z,42.805,6.029,13.3004,4.60036,2470.063,2020-5-23T05:50:56Z
2020-05-23T03:53:17Z,42.805,6.029,13.3003,4.60029,2470.077,2020-5-23T05:53:59Z
2020-05-23T03:56:20Z,42.805,6.029,13.3019,4.60011,2470.077,2020-5-23T05:57:03Z
2020-05-23T03:59:23Z,42.805,6.029,13.3036,4.60009,2470.063,2020-5-23T06:00:06Z
2020-05-23T04:02:27Z,42.805,6.029,13.3015,4.60014,2470.053,2020-5-23T06:03:09Z
2020-05-23T04:05:30Z,42.805,6.029,13.3003,4.60023,2470.087,2020-5-23T06:06:12Z
2020-05-23T04:08:33Z,42.805,6.029,13.3008,4.60043,2470.1,2020-5-23T06:09:16Z
2020-05-23T04:11:36Z,42.805,6.029,13.3013,4.60052,2470.063,2020-5-23T06:12:19Z
2020-05-23T04:14:40Z,42.805,6.029,13.3027,4.59994,2470.063,2020-5-23T06:15:22Z
2020-05-23T04:17:43Z,42.805,6.029,13.3038,4.59995,2470.087,2020-5-23T06:18:25Z
2020-05-23T04:20:46Z,42.805,6.029,13.3030,4.60016,2470.063,2020-5-23T06:21:29Z
2020-05-23T04:23:49Z,42.805,6.029,13.3027,4.60021,2470.1,2020-5-23T06:24:32Z
2020-05-23T04:26:52Z,42.805,6.029,13.3029,4.60000,2470.1,2020-5-23T06:27:35Z
2020-05-23T04:29:56Z,42.805,6.029,13.3014,4.60012,2470.124,2020-5-23T06:30:38Z
2020-05-23T04:32:59Z,42.805,6.029,13.3015,4.60009,2470.087,2020-5-23T06:33:41Z
2020-05-23T04:36:02Z,42.805,6.029,13.2996,4.60007,2470.1,2020-5-23T06:36:45Z
2020-05-23T04:39:05Z,42.805,6.029,13.3007,4.59998,2470.087,2020-5-23T06:39:48Z
2020-05-23T04:42:09Z,42.805,6.029,13.3014,4.59990,2470.1,2020-5-23T06:42:51Z
2020-05-23T04:45:12Z,42.805,6.029,13.3025,4.60018,2470.11,2020-5-23T06:45:54Z
2020-05-23T04:48:15Z,42.805,6.029,13.3031,4.60029,2470.1,2020-5-23T06:48:58Z
2020-05-23T04:51:18Z,42.805,6.029,13.3018,4.59994,2470.11,2020-5-23T06:52:01Z
2020-05-23T04:54:22Z,42.805,6.029,13.2998,4.60012,2470.124,2020-5-23T06:55:04Z
2020-05-23T04:57:25Z,42.805,6.029,13.3019,4.60007,2470.133,2020-5-23T06:58:07Z
2020-05-23T05:00:28Z,42.805,6.029,13.3029,4.60024,2470.1,2020-5-23T07:01:11Z
2020-05-23T05:03:31Z,42.805,6.029,13.3024,4.60004,2470.087,2020-5-23T07:04:14Z
2020-05-23T05:06:35Z,42.805,6.029,13.3018,4.60025,2470.11,2020-5-23T07:07:17Z
2020-05-23T05:09:38Z,42.805,6.029,13.3023,4.60029,2470.133,2020-5-23T07:10:20Z
2020-05-23T05:12:41Z,42.805,6.029,13.3018,4.60033,2470.147,2020-5-23T07:13:24Z
2020-05-23T05:15:44Z,42.805,6.029,13.3039,4.60032,2470.147,2020-5-23T07:16:27Z
2020-05-23T05:18:48Z,42.805,6.029,13.3000,4.60014,2470.147,2020-5-23T07:19:30Z
2020-05-23T05:21:51Z,42.805,6.029,13.3029,4.60024,2470.124,2020-5-23T07:22:34Z
2020-05-23T05:24:54Z,42.805,6.029,13.3007,4.59999,2470.124,2020-5-23T07:25:37Z
2020-05-23T05:27:57Z,42.805,6.029,13.3032,4.60020,2470.119,2020-5-23T07:28:40Z
2020-05-23T05:31:01Z,42.805,6.029,13.3028,4.59999,2470.147,2020-5-23T07:31:43Z
2020-05-23T05:34:04Z,42.805,6.029,13.3039,4.59993,2470.133,2020-5-23T07:34:47Z
2020-05-23T05:37:07Z,42.805,6.029,13.3058,4.60005,2470.147,2020-5-23T07:37:50Z
2020-05-23T05:40:11Z,42.805,6.029,13.3011,4.60014,2470.171,2020-5-23T07:40:53Z
2020-05-23T05:43:14Z,42.805,6.029,13.3053,4.60008,2470.156,2020-5-23T07:43:56Z
2020-05-23T05:46:17Z,42.805,6.029,13.3046,4.59999,2470.124,2020-5-23T07:47:00Z
2020-05-23T05:49:20Z,42.805,6.029,13.3028,4.60006,2470.156,2020-5-23T07:50:03Z
2020-05-23T05:52:24Z,42.805,6.029,13.3028,4.60019,2470.171,2020-5-23T07:53:06Z
2020-05-23T05:55:27Z,42.805,6.029,13.3029,4.60010,2470.156,2020-5-23T07:56:09Z
2020-05-23T05:58:30Z,42.805,6.029,13.3026,4.60005,2470.147,2020-5-23T07:59:13Z
2020-05-23T06:01:33Z,42.805,6.029,13.3028,4.59999,2470.147,2020-5-23T08:02:16Z
2020-05-23T06:04:37Z,42.805,6.029,13.3020,4.60021,2470.18,2020-5-23T08:05:19Z
2020-05-23T06:07:40Z,42.805,6.029,13.3048,4.60024,2470.194,2020-5-23T08:08:22Z
2020-05-23T06:10:43Z,42.805,6.029,13.3048,4.60059,2470.156,2020-5-23T08:11:26Z
2020-05-23T06:13:46Z,42.805,6.029,13.3039,4.60026,2470.18,2020-5-23T08:14:29Z
2020-05-23T06:16:49Z,42.805,6.029,13.3029,4.60021,2470.156,2020-5-23T08:17:32Z
2020-05-23T06:19:53Z,42.805,6.029,13.3039,4.60010,2470.194,2020-5-23T08:20:35Z
2020-05-23T06:22:56Z,42.805,6.029,13.3036,4.60009,2470.194,2020-5-23T08:23:39Z
2020-05-23T06:25:59Z,42.805,6.029,13.3034,4.60019,2470.18,2020-5-23T08:26:42Z
2020-05-23T06:29:03Z,42.805,6.029,13.3046,4.60020,2470.194,2020-5-23T08:29:45Z
2020-05-23T06:32:06Z,42.805,6.029,13.3014,4.60003,2470.194,2020-5-23T08:32:48Z
2020-05-23T06:35:09Z,42.805,6.029,13.3034,4.60014,2470.217,2020-5-23T08:35:52Z
2020-05-23T06:38:12Z,42.805,6.029,13.3045,4.60060,2470.18,2020-5-23T08:38:55Z
2020-05-23T06:41:16Z,42.805,6.029,13.3067,4.60021,2470.18,2020-5-23T08:41:58Z
2020-05-23T06:44:19Z,42.805,6.029,13.3060,4.60018,2470.194,2020-5-23T08:45:01Z
2020-05-23T06:47:22Z,42.805,6.029,13.3056,4.60002,2470.194,2020-5-23T08:48:05Z
2020-05-23T06:50:25Z,42.805,6.029,13.3046,4.60006,2470.194,2020-5-23T08:51:08Z
2020-05-23T06:53:28Z,42.805,6.029,13.3041,4.60006,2470.227,2020-5-23T08:54:11Z
2020-05-23T06:56:32Z,42.805,6.029,13.3039,4.60003,2470.18,2020-5-23T08:57:14Z
2020-05-23T06:59:35Z,42.805,6.029,13.3034,4.60028,2470.18,2020-5-23T09:00:17Z
2020-05-23T07:02:38Z,42.805,6.029,13.3042,4.60021,2470.18,2020-5-23T09:03:21Z
2020-05-23T07:05:41Z,42.805,6.029,13.3052,4.60017,2470.171,2020-5-23T09:06:24Z
2020-05-23T07:08:45Z,42.805,6.029,13.3041,4.60012,2470.217,2020-5-23T09:09:27Z
2020-05-23T07:11:48Z,42.805,6.029,13.3036,4.60010,2470.194,2020-5-23T09:12:31Z
2020-05-23T07:14:51Z,42.805,6.029,13.3042,4.60033,2470.18,2020-5-23T09:15:34Z
2020-05-23T07:17:55Z,42.805,6.029,13.3035,4.60034,2470.194,2020-5-23T09:18:37Z
2020-05-23T07:20:58Z,42.805,6.029,13.3039,4.60030,2470.217,2020-5-23T09:21:40Z
2020-05-23T07:24:01Z,42.805,6.029,13.3006,4.60028,2470.156,2020-5-23T09:24:44Z
2020-05-23T07:27:04Z,42.805,6.029,13.3018,4.60014,2470.18,2020-5-23T09:27:47Z
2020-05-23T07:30:08Z,42.805,6.029,13.2967,4.60041,2470.18,2020-5-23T09:30:50Z
2020-05-23T07:33:11Z,42.805,6.029,13.2971,4.60049,2470.203,2020-5-23T09:33:54Z
2020-05-23T07:36:14Z,42.805,6.029,13.2967,4.60026,2470.194,2020-5-23T09:36:57Z
2020-05-23T07:39:18Z,42.805,6.029,13.2970,4.60024,2470.194,2020-5-23T09:40:00Z
2020-05-23T07:42:21Z,42.805,6.029,13.2965,4.60092,2470.156,2020-5-23T09:43:04Z
2020-05-23T07:45:24Z,42.805,6.029,13.2970,4.60065,2470.194,2020-5-23T09:46:07Z
2020-05-23T07:48:27Z,42.805,6.029,13.2968,4.60016,2470.156,2020-5-23T09:49:10Z
2020-05-23T07:51:31Z,42.805,6.029,13.2967,4.60066,2470.156,2020-5-23T09:52:13Z
2020-05-23T07:54:34Z,42.805,6.029,13.2968,4.60067,2470.18,2020-5-23T09:55:16Z
2020-05-23T07:57:37Z,42.805,6.029,13.2968,4.60062,2470.156,2020-5-23T09:58:20Z
2020-05-23T08:00:40Z,42.805,6.029,13.2967,4.60031,2470.156,2020-5-23T10:01:23Z
2020-05-23T08:03:43Z,42.805,6.029,13.2966,4.60011,2470.203,2020-5-23T10:04:26Z
2020-05-23T08:06:47Z,42.805,6.029,13.2967,4.60009,2470.171,2020-5-23T10:07:29Z
2020-05-23T08:09:50Z,42.805,6.029,13.2967,4.60010,2470.194,2020-5-23T10:10:32Z
2020-05-23T08:12:53Z,42.805,6.029,13.2970,4.60008,2470.194,2020-5-23T10:13:36Z
2020-05-23T08:15:56Z,42.805,6.029,13.2968,4.60008,2470.203,2020-5-23T10:16:39Z
2020-05-23T08:19:00Z,42.805,6.029,13.2967,4.59999,2470.18,2020-5-23T10:19:42Z
2020-05-23T08:22:03Z,42.805,6.029,13.2964,4.59997,2470.194,2020-5-23T10:22:46Z
2020-05-23T08:25:06Z,42.805,6.029,13.2968,4.60000,2470.171,2020-5-23T10:25:49Z
2020-05-23T08:28:10Z,42.805,6.029,13.2966,4.60003,2470.18,2020-5-23T10:28:52Z
2020-05-23T08:31:13Z,42.805,6.029,13.2969,4.59999,2470.147,2020-5-23T10:31:55Z
2020-05-23T08:34:16Z,42.805,6.029,13.2969,4.60038,2470.194,2020-5-23T10:34:58Z
2020-05-23T08:37:19Z,42.805,6.029,13.2968,4.60024,2470.156,2020-5-23T10:38:02Z
2020-05-23T08:40:22Z,42.805,6.029,13.2967,4.60009,2470.194,2020-5-23T10:41:05Z
2020-05-23T08:43:26Z,42.805,6.029,13.2969,4.60006,2470.171,2020-5-23T10:44:08Z
2020-05-23T08:46:29Z,42.805,6.029,13.2965,4.59992,2470.171,2020-5-23T10:47:11Z
2020-05-23T08:49:32Z,42.805,6.029,13.2971,4.59999,2470.171,2020-5-23T10:50:15Z
2020-05-23T08:52:35Z,42.805,6.029,13.2971,4.60000,2470.133,2020-5-23T10:53:18Z
2020-05-23T08:55:39Z,42.805,6.029,13.2964,4.60003,2470.11,2020-5-23T10:56:21Z
2020-05-23T08:58:42Z,42.805,6.029,13.2964,4.60007,2470.133,2020-5-23T10:59:24Z
2020-05-23T09:01:45Z,42.805,6.029,13.2967,4.60011,2470.171,2020-5-23T11:02:28Z
2020-05-23T09:04:48Z,42.805,6.029,13.2970,4.60003,2470.156,2020-5-23T11:05:31Z
2020-05-23T09:07:52Z,42.805,6.029,13.2971,4.60008,2470.171,2020-5-23T11:08:34Z
2020-05-23T09:10:55Z,42.805,6.029,13.2967,4.60001,2470.147,2020-5-23T11:11:37Z
2020-05-23T09:13:58Z,42.805,6.029,13.2968,4.60006,2470.133,2020-5-23T11:14:41Z
2020-05-23T09:17:01Z,42.805,6.029,13.2970,4.60003,2470.133,2020-5-23T11:17:44Z
2020-05-23T09:20:05Z,42.805,6.029,13.2966,4.60007,2470.171,2020-5-23T11:20:48Z
2020-05-23T09:23:08Z,42.805,6.029,13.2966,4.59997,2470.147,2020-5-23T11:23:51Z
2020-05-23T09:26:12Z,42.805,6.029,13.2965,4.60004,2470.133,2020-5-23T11:26:54Z
2020-05-23T09:29:15Z,42.805,6.029,13.2967,4.60010,2470.11,2020-5-23T11:29:57Z
2020-05-23T09:32:18Z,42.805,6.029,13.2967,4.60014,2470.147,2020-5-23T11:33:01Z
2020-05-23T09:35:21Z,42.805,6.029,13.2966,4.59997,2470.133,2020-5-23T11:36:04Z
2020-05-23T09:38:25Z,42.805,6.029,13.2970,4.59993,2470.147,2020-5-23T11:39:07Z
2020-05-23T09:41:28Z,42.805,6.029,13.2970,4.60009,2470.147,2020-5-23T11:42:11Z
2020-05-23T09:44:31Z,42.805,6.029,13.2971,4.60003,2470.124,2020-5-23T11:45:14Z
2020-05-23T09:47:34Z,42.805,6.029,13.2991,4.59986,2470.124,2020-5-23T11:48:17Z
2020-05-23T09:50:38Z,42.805,6.029,13.2972,4.59994,2470.147,2020-5-23T11:51:20Z
2020-05-23T09:53:41Z,42.805,6.029,13.2978,4.59998,2470.124,2020-5-23T11:54:23Z
2020-05-23T09:56:44Z,42.805,6.029,13.2979,4.59989,2470.11,2020-5-23T11:57:27Z
2020-05-23T09:59:48Z,42.805,6.029,13.2986,4.59986,2470.147,2020-5-23T12:00:30Z
2020-05-23T10:02:51Z,42.805,6.029,13.2986,4.59983,2470.11,2020-5-23T12:03:33Z
2020-05-23T10:05:54Z,42.805,6.029,13.2984,4.59985,2470.147,2020-5-23T12:06:37Z
2020-05-23T10:08:57Z,42.805,6.029,13.2991,4.59986,2470.1,2020-5-23T12:09:40Z
2020-05-23T10:12:01Z,42.805,6.029,13.2998,4.59981,2470.1,2020-5-23T12:12:43Z
2020-05-23T10:15:04Z,42.805,6.029,13.2996,4.59981,2470.1,2020-5-23T12:15:46Z
2020-05-23T10:18:07Z,42.805,6.029,13.2986,4.59978,2470.1,2020-5-23T12:18:50Z
2020-05-23T10:21:10Z,42.805,6.029,13.2974,4.59980,2470.11,2020-5-23T12:21:53Z
2020-05-23T10:24:14Z,42.805,6.029,13.2974,4.59979,2470.087,2020-5-23T12:24:56Z
2020-05-23T10:27:17Z,42.805,6.029,13.2967,4.59976,2470.087,2020-5-23T12:27:59Z
2020-05-23T10:30:20Z,42.805,6.029,13.2970,4.59978,2470.1,2020-5-23T12:31:03Z
2020-05-23T10:33:23Z,42.805,6.029,13.2973,4.59980,2470.063,2020-5-23T12:34:06Z
2020-05-23T10:36:26Z,42.805,6.029,13.2973,4.59977,2470.11,2020-5-23T12:37:09Z
2020-05-23T10:39:30Z,42.805,6.029,13.2970,4.59977,2470.087,2020-5-23T12:40:12Z
2020-05-23T10:42:33Z,42.805,6.029,13.2969,4.59980,2470.087,2020-5-23T12:43:15Z
2020-05-23T10:45:36Z,42.805,6.029,13.2964,4.59978,2470.063,2020-5-23T12:46:19Z
2020-05-23T10:48:39Z,42.805,6.029,13.2973,4.59977,2470.053,2020-5-23T12:49:22Z
2020-05-23T10:51:43Z,42.805,6.029,13.2974,4.59998,2470.077,2020-5-23T12:52:25Z
2020-05-23T10:54:46Z,42.805,6.029,13.2975,4.59986,2470.063,2020-5-23T12:55:28Z
2020-05-23T10:57:49Z,42.805,6.029,13.2979,4.59986,2470.04,2020-5-23T12:58:32Z
2020-05-23T11:00:52Z,42.805,6.029,13.2971,4.59981,2470.017,2020-5-23T13:01:35Z
2020-05-23T11:03:56Z,42.805,6.029,13.2969,4.59976,2470.04,2020-5-23T13:04:38Z
2020-05-23T11:07:00Z,42.805,6.029,13.2976,4.59986,2470.087,2020-5-23T13:07:42Z
2020-05-23T11:10:03Z,42.805,6.029,13.2976,4.59986,2470.063,2020-5-23T13:10:45Z
2020-05-23T11:13:06Z,42.805,6.029,13.2968,4.59988,2470.077,2020-5-23T13:13:49Z
2020-05-23T11:16:09Z,42.805,6.029,13.2972,4.59980,2470.04,2020-5-23T13:16:52Z
2020-05-23T11:19:13Z,42.805,6.029,13.2973,4.59986,2470.077,2020-5-23T13:19:55Z
2020-05-23T11:22:16Z,42.805,6.029,13.2971,4.59980,2470.04,2020-5-23T13:22:59Z
2020-05-23T11:25:19Z,42.805,6.029,13.2968,4.59974,2470.017,2020-5-23T13:26:02Z
2020-05-23T11:28:22Z,42.805,6.029,13.2968,4.59983,2470.053,2020-5-23T13:29:05Z
2020-05-23T11:31:26Z,42.805,6.029,13.2968,4.59981,2470.053,2020-5-23T13:32:08Z
2020-05-23T11:34:29Z,42.805,6.029,13.2973,4.59975,2470.077,2020-5-23T13:35:12Z
2020-05-23T11:37:32Z,42.805,6.029,13.2968,4.59977,2470.077,2020-5-23T13:38:15Z
2020-05-23T11:40:35Z,42.805,6.029,13.2971,4.59981,2470.04,2020-5-23T13:41:18Z
2020-05-23T11:43:39Z,42.805,6.029,13.2971,4.59996,2470.063,2020-5-23T13:44:21Z
2020-05-23T11:46:42Z,42.805,6.029,13.2964,4.59979,2470.053,2020-5-23T13:47:25Z
2020-05-23T11:49:45Z,42.805,6.029,13.2968,4.59974,2470.03,2020-5-23T13:50:28Z
2020-05-23T11:52:48Z,42.805,6.029,13.2968,4.59983,2470.063,2020-5-23T13:53:31Z
2020-05-23T11:55:52Z,42.805,6.029,13.2968,4.59978,2470.053,2020-5-23T13:56:34Z
2020-05-23T11:58:55Z,42.805,6.029,13.2967,4.59978,2470.063,2020-5-23T13:59:38Z
2020-05-23T12:01:59Z,42.805,6.029,13.2969,4.59974,2470.053,2020-5-23T14:02:41Z
2020-05-23T12:05:02Z,42.805,6.029,13.2964,4.59973,2470.017,2020-5-23T14:05:44Z
2020-05-23T12:08:05Z,42.805,6.029,13.2968,4.59991,2469.979,2020-5-23T14:08:48Z
2020-05-23T12:11:09Z,42.805,6.029,13.2972,4.59976,2470.04,2020-5-23T14:11:51Z
2020-05-23T12:14:12Z,42.805,6.029,13.2968,4.59978,2470.017,2020-5-23T14:14:54Z
2020-05-23T12:17:15Z,42.805,6.029,13.2973,4.59987,2470.017,2020-5-23T14:17:58Z
2020-05-23T12:20:18Z,42.805,6.029,13.2971,4.59982,2470.017,2020-5-23T14:21:01Z
2020-05-23T12:23:22Z,42.805,6.029,13.2970,4.59975,2469.984,2020-5-23T14:24:04Z
2020-05-23T12:26:25Z,42.805,6.029,13.2967,4.59978,2470.017,2020-5-23T14:27:07Z
2020-05-23T12:29:28Z,42.805,6.029,13.2971,4.59975,2470.017,2020-5-23T14:30:11Z
2020-05-23T12:32:31Z,42.805,6.029,13.2971,4.59981,2470.053,2020-5-23T14:33:14Z
2020-05-23T12:35:34Z,42.805,6.029,13.2968,4.59982,2470.03,2020-5-23T14:36:17Z
2020-05-23T12:38:38Z,42.805,6.029,13.2968,4.59974,2470.03,2020-5-23T14:39:20Z
2020-05-23T12:41:41Z,42.805,6.029,13.2970,4.59977,2470.017,2020-5-23T14:42:23Z
2020-05-23T12:44:44Z,42.805,6.029,13.2968,4.59973,2470.007,2020-5-23T14:45:27Z
2020-05-23T12:47:47Z,42.805,6.029,13.2967,4.59974,2470.017,2020-5-23T14:48:30Z
2020-05-23T12:50:51Z,42.805,6.029,13.2968,4.59978,2470.017,2020-5-23T14:51:33Z
2020-05-23T12:53:54Z,42.805,6.029,13.2975,4.59992,2470.017,2020-5-23T14:54:37Z
2020-05-23T12:56:57Z,42.805,6.029,13.2972,4.60008,2470.017,2020-5-23T14:57:40Z
2020-05-23T13:00:00Z,42.805,6.029,13.2968,4.59994,2470.017,2020-5-23T15:00:43Z
2020-05-23T13:03:04Z,42.805,6.029,13.2972,4.59993,2470.017,2020-5-23T15:03:46Z
2020-05-23T13:06:07Z,42.805,6.029,13.2971,4.60001,2470.017,2020-5-23T15:06:49Z
2020-05-23T13:09:10Z,42.805,6.029,13.2967,4.59989,2470.017,2020-5-23T15:09:53Z
2020-05-23T13:12:13Z,42.805,6.029,13.2971,4.59987,2469.993,2020-5-23T15:12:56Z
2020-05-23T13:15:17Z,42.805,6.029,13.2969,4.59985,2469.993,2020-5-23T15:15:59Z
2020-05-23T13:18:20Z,42.805,6.029,13.2969,4.59986,2470.007,2020-5-23T15:19:02Z
2020-05-23T13:21:23Z,42.805,6.029,13.2974,4.59994,2470.017,2020-5-23T15:22:06Z
2020-05-23T13:24:26Z,42.805,6.029,13.2969,4.60003,2470.04,2020-5-23T15:25:09Z
2020-05-23T13:27:29Z,42.805,6.029,13.2970,4.59994,2469.993,2020-5-23T15:28:12Z
2020-05-23T13:30:33Z,42.805,6.029,13.2970,4.59992,2469.993,2020-5-23T15:31:15Z
2020-05-23T13:33:36Z,42.805,6.029,13.2971,4.59995,2470.017,2020-5-23T15:34:18Z
2020-05-23T13:36:39Z,42.805,6.029,13.2970,4.60009,2470.007,2020-5-23T15:37:22Z
2020-05-23T13:39:42Z,42.805,6.029,13.2969,4.59983,2469.993,2020-5-23T15:40:25Z
2020-05-23T13:42:46Z,42.805,6.029,13.2987,4.60002,2470.03,2020-5-23T15:43:28Z
2020-05-23T13:45:49Z,42.805,6.029,13.3023,4.60000,2469.97,2020-5-23T15:46:32Z
2020-05-23T13:48:52Z,42.805,6.029,13.2986,4.59983,2470.007,2020-5-23T15:49:35Z
2020-05-23T13:51:55Z,42.805,6.029,13.3004,4.59988,2469.993,2020-5-23T15:52:38Z
2020-05-23T13:54:59Z,42.805,6.029,13.2971,4.59998,2470.007,2020-5-23T15:55:41Z
2020-05-23T13:58:02Z,42.805,6.029,13.2969,4.60026,2470.017,2020-5-23T15:58:45Z
2020-05-23T14:01:05Z,42.805,6.029,13.3003,4.59999,2470.007,2020-5-23T16:01:48Z
2020-05-23T14:04:09Z,42.805,6.029,13.2990,4.59987,2469.993,2020-5-23T16:04:51Z
2020-05-23T14:07:12Z,42.805,6.029,13.3016,4.60011,2470.017,2020-5-23T16:07:54Z
2020-05-23T14:10:15Z,42.805,6.029,13.3001,4.59997,2469.993,2020-5-23T16:10:58Z
2020-05-23T14:13:18Z,42.805,6.029,13.3082,4.60018,2469.993,2020-5-23T16:14:01Z
2020-05-23T14:16:21Z,42.805,6.029,13.3029,4.59998,2469.984,2020-5-23T16:17:04Z
2020-05-23T14:19:25Z,42.805,6.029,13.3023,4.59983,2469.993,2020-5-23T16:20:07Z
2020-05-23T14:22:28Z,42.805,6.029,13.3011,4.59989,2469.97,2020-5-23T16:23:10Z
2020-05-23T14:25:31Z,42.805,6.029,13.3018,4.59990,2469.993,2020-5-23T16:26:14Z
2020-05-23T14:28:35Z,42.805,6.029,13.3023,4.59991,2469.993,2020-5-23T16:29:17Z
2020-05-23T14:31:38Z,42.805,6.029,13.3012,4.59988,2470.007,2020-5-23T16:32:20Z
2020-05-23T14:34:41Z,42.805,6.029,13.3016,4.59993,2470.007,2020-5-23T16:35:24Z
2020-05-23T14:37:44Z,42.805,6.029,13.3036,4.59999,2469.96,2020-5-23T16:38:27Z
2020-05-23T14:40:47Z,42.805,6.029,13.3031,4.59993,2470.007,2020-5-23T16:41:30Z
2020-05-23T14:43:51Z,42.805,6.029,13.3035,4.60026,2470.007,2020-5-23T16:44:33Z
2020-05-23T14:46:54Z,42.805,6.029,13.3019,4.59996,2469.97,2020-5-23T16:47:37Z
2020-05-23T14:49:57Z,42.805,6.029,13.3031,4.59993,2470.007,2020-5-23T16:50:40Z
2020-05-23T14:53:00Z,42.805,6.029,13.3037,4.59982,2469.97,2020-5-23T16:53:43Z
2020-05-23T14:56:04Z,42.805,6.029,13.3034,4.59978,2469.97,2020-5-23T16:56:46Z
2020-05-23T14:59:07Z,42.805,6.029,13.3036,4.59980,2469.993,2020-5-23T16:59:50Z
2020-05-23T15:02:10Z,42.805,6.029,13.3046,4.59981,2470.007,2020-5-23T17:02:53Z
2020-05-23T15:05:14Z,42.805,6.029,13.3042,4.59996,2469.984,2020-5-23T17:05:56Z
2020-05-23T15:08:17Z,42.805,6.029,13.3044,4.60019,2470.007,2020-5-23T17:08:59Z
2020-05-23T15:11:20Z,42.805,6.029,13.3048,4.59993,2470.017,2020-5-23T17:12:03Z
2020-05-23T15:14:23Z,42.805,6.029,13.3043,4.60014,2470.03,2020-5-23T17:15:06Z